• In Belarus
  • List of Countries
  • For 7 days
  • Water Temperature
  • Satellite Maps
  • Weather Map
  • Weather Widgets
  • user-avatar
    Login

    Hourly Weather Melbourne

    Today, 26 July, Wednesday

    Time Temperature Precipitation Wind Pressure Humidity
    00:00 +10°C° 0 mm 4 mps 758 mmHg 87%
    01:00 +9°C° 0 mm 5 mps 758 mmHg 87%
    02:00 +8°C° 0 mm 5 mps 759 mmHg 87%
    03:00 +8°C° 0 mm 5 mps 759 mmHg 87%
    04:00 +8°C° 0 mm 4 mps 758 mmHg 87%
    05:00 +8°C° 0.1 mm 4 mps 759 mmHg 86%
    06:00 +10°C° 0.1 mm 4 mps 759 mmHg 86%
    07:00 +10°C° 0.1 mm 4 mps 759 mmHg 86%
    08:00 +9°C° 0.1 mm 5 mps 760 mmHg 84%
    09:00 +10°C° 0.1 mm 5 mps 761 mmHg 82%
    10:00 +12°C° 0.1 mm 5 mps 761 mmHg 81%
    11:00 +12°C° 0.3 mm 5 mps 762 mmHg 78%
    12:00 +13°C° 0.3 mm 5 mps 762 mmHg 74%
    13:00 +13°C° 0.3 mm 5 mps 762 mmHg 71%
    14:00 +13°C° 0.2 mm 5 mps 763 mmHg 71%
    15:00 +13°C° 0.2 mm 4 mps 763 mmHg 71%
    16:00 +13°C° 0.2 mm 4 mps 763 mmHg 72%
    17:00 +11°C° 0 mm 3 mps 764 mmHg 77%
    18:00 +10°C° 0 mm 2 mps 764 mmHg 82%
    19:00 +8°C° 0 mm 2 mps 765 mmHg 87%
    20:00 +9°C° 0 mm 1 mps 765 mmHg 88%
    21:00 +8°C° 0 mm 1 mps 766 mmHg 90%
    22:00 +8°C° 0 mm 1 mps 766 mmHg 91%
    23:00 +7°C° 0 mm 1 mps 766 mmHg 92%

    Tomorrow, 27 July, Thursday

    Time Temperature Precipitation Wind Pressure Humidity
    00:00 +7°C° 0 mm 1 mps 767 mmHg 92%
    01:00 +7°C° 0 mm 1 mps 767 mmHg 92%
    02:00 +6°C° 0 mm 2 mps 766 mmHg 92%
    03:00 +6°C° 0 mm 2 mps 766 mmHg 92%
    04:00 +5°C° 0 mm 2 mps 766 mmHg 92%
    05:00 +5°C° 0 mm 2 mps 766 mmHg 92%
    06:00 +5°C° 0 mm 2 mps 766 mmHg 92%
    07:00 +4°C° 0 mm 3 mps 766 mmHg 91%
    08:00 +7°C° 0 mm 3 mps 766 mmHg 86%
    09:00 +7°C° 0 mm 4 mps 766 mmHg 82%
    10:00 +10°C° 0 mm 4 mps 766 mmHg 77%
    11:00 +10°C° 0 mm 5 mps 765 mmHg 72%
    12:00 +12°C° 0 mm 5 mps 764 mmHg 66%
    13:00 +14°C° 0 mm 6 mps 763 mmHg 61%
    14:00 +14°C° 0 mm 6 mps 762 mmHg 63%
    15:00 +13°C° 0 mm 6 mps 761 mmHg 65%
    16:00 +13°C° 0 mm 6 mps 760 mmHg 67%
    17:00 +13°C° 0 mm 6 mps 760 mmHg 68%
    18:00 +13°C° 0 mm 6 mps 760 mmHg 68%
    19:00 +13°C° 0 mm 6 mps 760 mmHg 68%
    20:00 +11°C° 1.2 mm 6 mps 760 mmHg 72%
    21:00 +11°C° 1.2 mm 6 mps 759 mmHg 77%
    22:00 +10°C° 1.2 mm 5 mps 759 mmHg 82%
    23:00 +10°C° 1.3 mm 5 mps 759 mmHg 85%

    Day after tomorrow, 28 July, Friday

    Time Temperature Precipitation Wind Pressure Humidity
    00:00 +9°C° 1.3 mm 5 mps 759 mmHg 88%
    01:00 +9°C° 1.3 mm 5 mps 759 mmHg 91%
    02:00 +8°C° 0.1 mm 5 mps 760 mmHg 91%
    03:00 +7°C° 0.1 mm 4 mps 760 mmHg 92%
    04:00 +7°C° 0.1 mm 4 mps 761 mmHg 92%
    05:00 +7°C° 0 mm 4 mps 761 mmHg 92%
    06:00 +6°C° 0 mm 4 mps 762 mmHg 92%
    07:00 +7°C° 0 mm 3 mps 762 mmHg 92%
    08:00 +8°C° 0 mm 3 mps 762 mmHg 88%
    09:00 +9°C° 0 mm 3 mps 763 mmHg 84%
    10:00 +11°C° 0 mm 3 mps 763 mmHg 80%
    11:00 +12°C° 0 mm 3 mps 763 mmHg 72%
    12:00 +13°C° 0 mm 3 mps 763 mmHg 65%
    13:00 +14°C° 0 mm 3 mps 763 mmHg 57%
    14:00 +15°C° 0 mm 2 mps 763 mmHg 58%
    15:00 +15°C° 0 mm 2 mps 762 mmHg 58%
    16:00 +15°C° 0 mm 2 mps 762 mmHg 58%
    17:00 +13°C° 0 mm 2 mps 762 mmHg 65%
    18:00 +12°C° 0 mm 2 mps 763 mmHg 71%
    19:00 +9°C° 0 mm 2 mps 763 mmHg 78%
    20:00 +9°C° 0 mm 3 mps 763 mmHg 77%
    21:00 +8°C° 0 mm 4 mps 763 mmHg 75%
    22:00 +10°C° 0 mm 4 mps 763 mmHg 74%
    23:00 +9°C° 0 mm 5 mps 762 mmHg 71%

    29 July, Saturday

    Time Temperature Precipitation Wind Pressure Humidity
    00:00 +9°C° 0 mm 6 mps 761 mmHg 69%
    01:00 +9°C° 0 mm 6 mps 761 mmHg 66%
    02:00 +10°C° 0 mm 7 mps 760 mmHg 64%
    03:00 +10°C° 0 mm 7 mps 759 mmHg 62%
    04:00 +10°C° 0 mm 8 mps 758 mmHg 60%
    05:00 +10°C° 0 mm 8 mps 758 mmHg 59%
    06:00 +10°C° 0 mm 9 mps 758 mmHg 59%
    07:00 +10°C° 0 mm 9 mps 758 mmHg 59%
    08:00 +11°C° 0 mm 9 mps 757 mmHg 57%
    09:00 +11°C° 0 mm 9 mps 756 mmHg 56%
    10:00 +12°C° 0 mm 10 mps 756 mmHg 54%
    11:00 +13°C° 0 mm 10 mps 754 mmHg 52%
    12:00 +14°C° 0 mm 10 mps 753 mmHg 50%
    13:00 +16°C° 0 mm 10 mps 752 mmHg 48%
    14:00 +17°C° 0 mm 8 mps 752 mmHg 48%
    15:00 +18°C° 0 mm 7 mps 751 mmHg 47%
    16:00 +20°C° 0 mm 6 mps 751 mmHg 47%
    17:00 +19°C° 0.1 mm 6 mps 751 mmHg 52%
    18:00 +17°C° 0.1 mm 5 mps 751 mmHg 58%
    19:00 +16°C° 0.1 mm 5 mps 751 mmHg 64%
    20:00 +14°C° 0.9 mm 4 mps 752 mmHg 74%
    21:00 +13°C° 0.9 mm 3 mps 753 mmHg 84%
    22:00 +12°C° 0.9 mm 3 mps 754 mmHg 93%
    23:00 +11°C° 0.4 mm 3 mps 754 mmHg 93%

    30 July, Sunday

    Time Temperature Precipitation Wind Pressure Humidity
    00:00 +11°C° 0.4 mm 3 mps 754 mmHg 92%
    01:00 +11°C° 0.4 mm 3 mps 754 mmHg 91%
    02:00 +10°C° 0 mm 3 mps 754 mmHg 91%
    03:00 +10°C° 0 mm 3 mps 754 mmHg 91%
    04:00 +8°C° 0 mm 4 mps 755 mmHg 91%
    05:00 +8°C° 0 mm 4 mps 755 mmHg 90%
    06:00 +10°C° 0 mm 4 mps 755 mmHg 90%
    07:00 +10°C° 0 mm 4 mps 756 mmHg 89%
    08:00 +9°C° 0 mm 5 mps 756 mmHg 85%
    09:00 +10°C° 0 mm 5 mps 756 mmHg 81%
    10:00 +11°C° 0 mm 6 mps 757 mmHg 78%
    11:00 +13°C° 0.2 mm 6 mps 757 mmHg 74%
    12:00 +13°C° 0.2 mm 6 mps 756 mmHg 70%
    13:00 +14°C° 0.2 mm 6 mps 756 mmHg 66%
    14:00 +14°C° 0.2 mm 6 mps 756 mmHg 67%
    15:00 +13°C° 0.2 mm 5 mps 757 mmHg 69%
    16:00 +13°C° 0.2 mm 5 mps 757 mmHg 71%
    17:00 +12°C° 0.1 mm 4 mps 757 mmHg 74%
    18:00 +11°C° 0.1 mm 4 mps 758 mmHg 77%
    19:00 +10°C° 0.1 mm 3 mps 759 mmHg 80%
    20:00 +10°C° 0 mm 3 mps 759 mmHg 82%
    21:00 +9°C° 0 mm 3 mps 759 mmHg 84%
    22:00 +9°C° 0 mm 3 mps 760 mmHg 85%
    23:00 +8°C° 0 mm 2 mps 760 mmHg 86%

    31 July, Monday

    Time Temperature Precipitation Wind Pressure Humidity
    00:00 +8°C° 0 mm 2 mps 760 mmHg 87%
    01:00 +8°C° 0 mm 2 mps 759 mmHg 88%
    02:00 +8°C° 0 mm 2 mps 760 mmHg 89%
    03:00 +8°C° 0 mm 2 mps 760 mmHg 89%
    04:00 +8°C° 0 mm 3 mps 760 mmHg 90%
    05:00 +8°C° 0.2 mm 3 mps 760 mmHg 91%
    06:00 +8°C° 0.2 mm 3 mps 760 mmHg 92%
    07:00 +8°C° 0.2 mm 3 mps 761 mmHg 94%
    08:00 +9°C° 0.2 mm 3 mps 761 mmHg 92%
    09:00 +10°C° 0.2 mm 3 mps 761 mmHg 90%
    10:00 +10°C° 0.2 mm 3 mps 761 mmHg 89%
    11:00 +11°C° 0.3 mm 3 mps 761 mmHg 87%
    12:00 +11°C° 0.3 mm 3 mps 761 mmHg 85%
    13:00 +12°C° 0.3 mm 3 mps 761 mmHg 83%
    14:00 +11°C° 0.3 mm 3 mps 761 mmHg 83%
    15:00 +11°C° 0.3 mm 3 mps 761 mmHg 82%
    16:00 +11°C° 0.3 mm 3 mps 761 mmHg 82%
    17:00 +10°C° 0.1 mm 2 mps 762 mmHg 84%
    18:00 +9°C° 0.1 mm 2 mps 763 mmHg 86%
    19:00 +8°C° 0.1 mm 2 mps 763 mmHg 89%
    20:00 +7°C° 0.1 mm 3 mps 764 mmHg 90%
    21:00 +7°C° 0.1 mm 3 mps 764 mmHg 91%
    22:00 +5°C° 0.1 mm 3 mps 764 mmHg 91%
    23:00 +5°C° 0.1 mm 3 mps 764 mmHg 91%
    Show more